Tracking 20083 objects as of 9-Dec-2019
HD Live streaming from Space Station
objects crossing your sky now

NOAA 16 DEB

Track NOAA 16 DEB now!
10-day predictions


NORAD ID: 42424
Int'l Code: 2000-055TU
Perigee: 810.7 km
Apogee: 855.9 km
Inclination: 99.0 °
Period: 101.4 minutes
Semi major axis: 7204 km
RCS: Unknown
Launch date: September 21, 2000
Source: United States (US)
Launch site: AIR FORCE WESTERN TEST RANGE (AFWTR)

Note: This is SATELLITE DEBRIS
aabbcc
Your satellite tracking list
Your tracking list is empty




NASA's NSSDC Master Catalog

Two Line Element Set (TLE):
1 42424U 00055TU  19342.54026778 +.00001558 +00000-0 +75386-3 0  9995
2 42424 099.0074 088.6731 0031377 193.5984 166.4350 14.19769331189232
Source of the keplerian elements: AFSPC